Huntsville, TX

4:49 PM CST on February 13, 2016 (GMT -0600)
Huntsville Municipal

Weather History for KUTS - October, 2013

Change the Weather History Date:

Sunday, October 27, 2013

  Actual Average (KCXO) Record (KCXO)
Temperature  
Mean Temperature 66 °F -  
Max Temperature 72 °F 75 °F 93 °F (2010)
Min Temperature 60 °F 53 °F -32 °F (1997)
Growing Degree Days 16 (Base 50)    
Moisture  
Dew Point 60 °F    
Average Humidity 88    
Maximum Humidity 96    
Minimum Humidity 68    
Precipitation  
Precipitation 1.81 in - - ()
Sea Level Pressure  
Sea Level Pressure 30.07 in    
Wind  
Wind Speed 5 mph (NE)    
Max Wind Speed 13 mph    
Max Gust Speed 28 mph    
Visibility 6 miles    
Events Rain , Thunderstorm    
Averages and records for this station are not official NWS values.
T = Trace of Precipitation, MM = Missing Value Source: NWS Daily Summary

Daily Weather History Graph

Daily Weather History Graph

Search for Another Location

Airport or City:

Trip Planner

Search our weather history database for the weather conditions in past years. The results will help you decide how hot, cold, wet, or windy it might be!

Date:

Astronomy

Oct. 27, 2013 Rise Set
Actual Time 7:33 AM CDT 6:38 PM CDT
Civil Twilight 7:08 AM CDT 7:03 PM CDT
Nautical Twilight 6:40 AM CDT 7:31 PM CDT
Astronomical Twilight 6:12 AM CDT 7:59 PM CDT
Moon 12:58 AM CDT (10/27) 2:23 PM CDT (10/27)
Length of Visible Light 11h 54m
Length of Day
11h 04m
Last Quarter, 43% of the Moon is Illuminated
Oct 27
Last Quarter
Nov 3
New
Nov 9
First Quarter
Nov 17
Full
Nov 25
Last Quarter

Hourly Weather History & Observations

Time (CDT) Temp. Dew Point Humidity Pressure Visibility Wind Dir Wind Speed Gust Speed Precip Events Conditions
12:30 AM 64.4 °F 62.6 °F 94% 30.12 in 5.0 mi Calm Calm - 0.02 in Rain , Thunderstorm Light Thunderstorms and Rain
12:53 AM 64.9 °F 63.0 °F 93% 30.11 in 6.0 mi ENE 3.5 mph - 0.04 in Rain , Thunderstorm Light Thunderstorms and Rain
1:11 AM 64.4 °F 62.6 °F 94% 30.12 in 5.0 mi East 3.5 mph - 0.02 in Rain Light Rain
1:36 AM 64.4 °F 62.6 °F 94% 30.10 in 5.0 mi East 4.6 mph - 0.03 in Rain , Thunderstorm Light Rain
1:50 AM 64.4 °F 62.6 °F 94% 30.11 in 5.0 mi ENE 3.5 mph - 0.05 in Rain Light Rain
1:51 AM 64.0 °F 63.0 °F 96% 30.10 in 5.0 mi ENE 3.5 mph - 0.05 in Rain Light Rain
2:02 AM 64.4 °F 62.6 °F 94% 30.10 in 4.0 mi ENE 5.8 mph - 0.03 in Rain , Thunderstorm Rain
2:18 AM 64.4 °F 62.6 °F 94% 30.10 in 2.5 mi East 5.8 mph - 0.12 in Rain , Thunderstorm Heavy Thunderstorms and Rain
2:24 AM 64.4 °F 62.6 °F 94% 30.08 in 1.5 mi East 10.4 mph - 0.16 in Rain , Thunderstorm Heavy Thunderstorms and Rain
2:32 AM 64.4 °F 62.6 °F 94% 30.08 in 2.5 mi East 6.9 mph 18.4 mph 0.20 in Rain , Thunderstorm Heavy Rain
2:36 AM 64.4 °F 62.6 °F 94% 30.07 in 3.0 mi East 9.2 mph - 0.21 in Rain , Thunderstorm Heavy Rain
2:48 AM 62.6 °F 60.8 °F 94% 30.07 in 4.0 mi ENE 10.4 mph 21.9 mph 0.25 in Rain , Thunderstorm Thunderstorms and Rain
2:53 AM 62.1 °F 60.1 °F 93% 30.06 in 3.0 mi ENE 11.5 mph 25.3 mph 0.28 in Rain , Thunderstorm Heavy Thunderstorms and Rain
3:02 AM 60.8 °F 59.0 °F 94% 30.09 in 2.5 mi NE 10.4 mph 20.7 mph 0.08 in Rain , Thunderstorm Heavy Thunderstorms and Rain
3:10 AM 60.8 °F 59.0 °F 94% 30.08 in 1.5 mi NE 11.5 mph 27.6 mph 0.22 in Rain , Thunderstorm Heavy Thunderstorms and Rain
3:37 AM 60.8 °F 57.2 °F 88% 30.06 in 2.0 mi NE 11.5 mph 23.0 mph 0.70 in Rain , Thunderstorm Heavy Thunderstorms and Rain
3:44 AM 60.8 °F 59.0 °F 94% 30.08 in 2.5 mi NE 8.1 mph 23.0 mph 0.73 in Rain Heavy Rain
3:50 AM 60.8 °F 59.0 °F 94% 30.07 in 3.0 mi NE 9.2 mph 23.0 mph 0.77 in Rain , Thunderstorm Heavy Thunderstorms and Rain
3:51 AM 60.1 °F 59.0 °F 96% 30.06 in 3.0 mi NE 12.7 mph 23.0 mph 0.78 in Rain , Thunderstorm Heavy Thunderstorms and Rain
3:58 AM 60.8 °F 59.0 °F 94% 30.08 in 2.5 mi NE 8.1 mph 23.0 mph 0.06 in Rain , Thunderstorm Heavy Thunderstorms and Rain
4:12 AM 60.8 °F 59.0 °F 94% 30.09 in 1.8 mi Variable 6.9 mph - 0.17 in Rain , Thunderstorm Heavy Thunderstorms and Rain
4:29 AM 60.8 °F 59.0 °F 94% 30.11 in 2.0 mi North 11.5 mph 23.0 mph 0.33 in Rain , Thunderstorm Heavy Thunderstorms and Rain
4:44 AM 60.8 °F 59.0 °F 94% 30.11 in 3.0 mi Variable 5.8 mph - 0.40 in Rain , Thunderstorm Heavy Thunderstorms and Rain
4:53 AM 60.1 °F 59.0 °F 96% 30.08 in 4.0 mi ENE 8.1 mph - 0.42 in Rain , Thunderstorm Thunderstorms and Rain
5:22 AM 60.8 °F 59.0 °F 94% 30.09 in 6.0 mi East 4.6 mph - 0.07 in Rain Rain
5:48 AM 60.8 °F 57.2 °F 88% 30.07 in 4.0 mi East 6.9 mph - 0.16 in Rain , Thunderstorm Heavy Thunderstorms and Rain
5:53 AM 61.0 °F 57.9 °F 90% 30.06 in 5.0 mi East 6.9 mph - 0.18 in Rain , Thunderstorm Heavy Thunderstorms and Rain
6:12 AM 60.8 °F 57.2 °F 88% 30.03 in 8.0 mi ESE 9.2 mph - 0.05 in Rain Light Rain
6:53 AM 61.0 °F 57.0 °F 87% 30.02 in 10.0 mi East 3.5 mph - 0.06 in   Mostly Cloudy
7:53 AM 60.1 °F 57.9 °F 93% 30.05 in 10.0 mi WNW 3.5 mph - 0.00 in   Clear
8:53 AM 61.0 °F 57.9 °F 90% 30.08 in 10.0 mi Calm Calm - N/A   Clear
9:53 AM 64.9 °F 60.1 °F 84% 30.10 in 10.0 mi NNW 4.6 mph - N/A   Clear
10:40 AM 66.2 °F 59.0 °F 78% 30.12 in 10.0 mi West 3.5 mph - N/A   Mostly Cloudy
10:53 AM 66.0 °F 60.1 °F 81% 30.11 in 10.0 mi Calm Calm - N/A   Overcast
11:53 AM 66.9 °F 60.1 °F 79% 30.11 in 10.0 mi NW 3.5 mph - N/A   Overcast
12:53 PM 68.0 °F 59.0 °F 73% 30.09 in 10.0 mi NW 4.6 mph - N/A   Overcast
1:53 PM 69.1 °F 59.0 °F 70% 30.06 in 10.0 mi NW 4.6 mph - N/A   Overcast
2:53 PM 69.1 °F 60.1 °F 73% 30.05 in 10.0 mi WNW 4.6 mph - N/A   Overcast
3:53 PM 70.0 °F 60.1 °F 71% 30.04 in 10.0 mi NNW 3.5 mph - N/A   Overcast
4:53 PM 71.1 °F 60.1 °F 68% 30.03 in 10.0 mi Calm Calm - N/A   Overcast
5:18 PM 69.8 °F 60.8 °F 73% 30.04 in 10.0 mi Calm Calm - N/A   Scattered Clouds
5:53 PM 70.0 °F 59.0 °F 68% 30.02 in 10.0 mi Calm Calm - N/A   Clear
6:53 PM 66.0 °F 61.0 °F 84% 30.03 in 10.0 mi Calm Calm - N/A   Clear
7:53 PM 64.0 °F 60.1 °F 87% 30.04 in 10.0 mi Calm Calm - N/A   Scattered Clouds
8:53 PM 62.1 °F 59.0 °F 90% 30.04 in 10.0 mi Calm Calm - N/A   Clear
9:53 PM 62.1 °F 59.0 °F 90% 30.05 in 10.0 mi Calm Calm - N/A   Clear
10:53 PM 61.0 °F 57.9 °F 90% 30.06 in 10.0 mi Calm Calm - N/A   Clear
11:53 PM 61.0 °F 59.0 °F 93% 30.06 in 10.0 mi Calm Calm - N/A   Clear